カタログに戻る

ATLAS 5 CENTAUR DEB

運用中HEO
NORAD 44683·DEBRIS·🇺🇸 United States

打ち上げ Oct 17, 2018 から Cape Canaveral Space Force Station

Loading…

次のパス (今後24時間)

TLE

最新Source: Space-Track

元期: Sep 10, 2026, 18:16 UTC

1 44683U 18079AV  26253.76136644 -.00000201  00000-0  00000-0 0  9999
2 44683  13.4324  23.5343 4708058 339.7472   6.4210  1.83233341 52896

AllMySatでATLAS 5 CENTAUR DEBをリアルタイム追跡

Download on the App Store